Home   Weather   Amravati   Past weeks

Flag for India Past Weather in Amravati, Maharashtra, India — Yesterday and Last 2 Weeks

Now
97 °F

Clear.


Feels Like: 93 °F
Forecast: 76 / 104 °F
Wind: 14 mph from Northwest

Location: Nagpur Sonegaon

Current Time: Apr 25, 2017 at 10:29:50 am

Latest Report: Apr 25, 2017 at 10:00 am


Visibility: 4 mi

Pressure: 29.86 "Hg

Humidity: 19%

Dew Point: 48 °F

Location of AmravatiLocation

Past Weather in Amravati — Graph

°F

Amravati Temperature Yesterday

Maximum temperature yesterday: 106 °F (at 1:30 pm)
Minimum temperature yesterday: 79 °F (at 4:00 am)
Average temperature yesterday: 94 °F

High & Low Weather Summary for the Past Weeks

 TemperatureHumidityPressure
High113 °F (Apr 18, 3:30 pm)39% (Apr 15, 6:00 am)29.92 "Hg (Apr 15, 6:00 am)
Low72 °F (Apr 11, 2:30 am)4% (Apr 12, 3:30 pm)29.56 "Hg (Apr 15, 4:30 pm)
Average95 °F14%29.74 "Hg
* Reported Apr 10 8:30 am — Apr 25 9:00 am, Amravati, Weather by CustomWeather, © 2017

Note: Actual official high and low records may vary slightly from our data, if they occured in-between our weather recording intervals... More about our weather records

Advertising

Amravati Weather History for the Previous 24 Hours

Scroll right to see more
 ConditionsComfort  
Time TempWeatherWind HumidityBarometerVisibility
9:00 am
Tue, Apr 25
93 °FHaze.12 mph23%29.86 "Hg3 mi
8:30 am91 °FHaze.8 mph24%29.86 "Hg3 mi
8:00 am90 °FHaze.14 mph24%29.86 "Hg3 mi
7:00 am86 °FHaze.8 mph24%29.83 "Hg2 mi
6:30 am82 °FThunderstorms. Cloudy.2 mph25%29.80 "HgN/A
6:00 am82 °FThunderstorms. Overcast.2 mph25%29.80 "HgN/A
5:30 am82 °FThunderstorms. Overcast.3 mph23%29.80 "HgN/A
5:00 am82 °FThunderstorms. Overcast.3 mph23%29.77 "HgN/A
4:30 am84 °FThunderstorms. Overcast.3 mph22%29.77 "HgN/A
4:00 am86 °FThunderstorms. Overcast.5 mph20%29.77 "HgN/A
3:30 am86 °FThunderstorms. Overcast.5 mph20%29.77 "HgN/A
3:00 am84 °FThunderstorms. Overcast.3 mph20%29.77 "Hg2 mi
2:30 am84 °FHaze.8 mph20%29.77 "Hg2 mi
1:30 am86 °FHaze.7 mph19%29.77 "Hg2 mi
1:00 am86 °FHaze.7 mph19%29.77 "Hg2 mi
12:30 am86 °FHaze.6 mph19%29.77 "Hg2 mi
11:30 pm
Mon, Apr 24
88 °FHaze.3 mph18%29.80 "Hg2 mi
11:00 pm90 °FHaze.5 mph18%29.80 "Hg2 mi
10:30 pm90 °FHaze.6 mph18%29.80 "Hg2 mi
10:00 pm91 °FHaze.6 mph18%29.80 "Hg2 mi
9:30 pm95 °FHaze.6 mph15%29.80 "Hg2 mi
9:00 pm95 °FHaze.6 mph15%29.80 "Hg2 mi
8:30 pm97 °FHaze.8 mph16%29.77 "Hg3 mi
8:00 pm97 °FHaze.7 mph14%29.77 "Hg3 mi
7:30 pm99 °FHaze.6 mph15%29.74 "Hg3 mi
7:00 pm99 °FHaze.7 mph15%29.74 "Hg3 mi
6:30 pm102 °FHaze.9 mph12%29.71 "Hg3 mi
6:00 pm102 °FHaze.13 mph12%29.71 "Hg3 mi
5:30 pm104 °FClear.15 mph12%29.71 "Hg4 mi
4:30 pm104 °FClear.12 mph11%29.71 "Hg4 mi
4:00 pm104 °FClear.9 mph11%29.71 "Hg4 mi
3:00 pm104 °FClear.9 mph10%29.74 "Hg4 mi
2:30 pm106 °FClear.12 mph9%29.74 "Hg4 mi
2:00 pm104 °FClear.14 mph10%29.74 "Hg4 mi
1:30 pm106 °FClear.17 mph8%29.77 "Hg4 mi
1:00 pm104 °FClear.16 mph9%29.80 "Hg4 mi
12:30 pm102 °FClear.10 mph9%29.80 "Hg4 mi
12:00 pm102 °FClear.13 mph10%29.80 "Hg4 mi
11:30 am102 °FClear.12 mph11%29.83 "Hg4 mi
11:00 am100 °FClear.12 mph12%29.83 "Hg4 mi
10:30 am99 °FClear.14 mph16%29.83 "Hg4 mi
10:00 am99 °FClear.12 mph15%29.83 "Hg4 mi
Weather by CustomWeather, © 2017

See weather overviewHow to use our weather pages